Temperature
17 15 15 16 17 17 17 18 18 18 19 19 18 18 18 18 19 19 19 20 20 21 21 21 21 20 20 20 19 19 19 18 18 17 17 17 16 16 15 15 15 14 14 14
15 16 17 17 17 18 18 17 17 18 19 19 18 18 18 18 18 19 19 19 20 20 20 21 21 20 20 20 20 19 19 19 18 18 17 17 16 16 15 15 15 14 14 14
16 17 18 18 18 18 18 17 17 18 18 18 18 18 18 18 18 19 19 20 20 20 21 21 21 20 20 20 20 20 19 19 18 18 17 17 16 16 16 15 15 15 14 14
16 17 18 18 18 18 17 18 18 18 17 17 18 17 18 18 18 18 18 19 20 20 21 21 21 21 20 20 20 19 19 19 18 18 17 17 17 16 16 15 15 15 15 14
17 17 17 17 18 18 17 17 17 17 17 17 17 17 17 18 18 18 18 18 20 20 21 21 21 21 20 20 20 19 19 19 18 18 17 17 17 16 16 15 15 15 15 15
17 17 18 18 18 18 17 17 16 15 16 17 17 17 17 16 17 18 18 18 19 20 20 20 20 20 20 20 19 19 19 18 18 18 17 17 17 16 16 15 15 15 15 15
17 17 17 18 17 17 17 16 16 16 16 16 17 17 17 18 18 18 18 18 19 19 20 20 20 20 20 20 19 19 19 18 18 18 17 17 17 16 16 16 15 15 15 15
16 17 17 18 17 17 16 16 16 16 16 16 17 17 18 18 18 19 19 19 19 19 20 20 20 20 20 20 19 19 19 18 18 18 17 17 16 16 16 16 15 15 15 15
16 17 18 18 18 17 16 16 16 16 16 16 16 17 18 17 17 17 18 18 19 19 19 20 20 20 20 19 19 19 18 18 18 17 17 17 16 16 16 16 16 15 15 15
16 17 18 18 18 17 17 16 15 16 16 17 17 17 17 17 17 16 16 17 18 19 19 19 19 19 19 19 19 18 18 18 18 17 17 17 16 16 16 16 15 15 15 15
17 17 17 18 18 17 16 16 16 15 16 16 17 17 18 18 17 17 17 18 19 19 19 19 19 19 19 19 19 18 18 18 17 17 17 17 16 16 16 15 15 15 15 15
16 16 16 18 18 18 18 17 16 17 16 15 16 17 19 17 17 18 18 18 19 19 19 19 19 19 19 18 18 18 18 18 17 17 17 16 16 16 16 15 15 15 15 15
16 16 17 18 18 18 18 17 17 16 15 15 16 18 17 17 17 18 18 18 19 19 18 18 18 18 18 18 18 18 18 17 17 17 16 16 16 16 16 15 15 15 15 15
17 16 17 18 18 18 18 18 17 16 16 16 16 18 18 17 16 16 17 18 19 19 19 18 18 18 18 18 18 18 18 17 17 16 16 16 16 16 15 15 15 15 15 15
17 17 18 18 19 19 19 19 17 17 17 17 18 17 18 17 17 17 17 18 18 18 18 18 18 18 18 18 18 18 18 17 17 16 16 16 16 15 15 15 15 15 14 14
16 18 18 19 19 19 19 19 18 18 18 18 19 18 18 18 18 17 17 18 18 18 19 19 18 18 18 18 18 18 17 17 17 16 16 16 15 15 15 15 15 14 14 14
16 17 17 18 18 19 19 19 18 18 18 18 18 19 17 16 16 17 18 18 19 19 19 19 19 19 18 18 18 18 17 17 16 16 16 15 15 15 14 14 14 14 14 13
15 16 15 16 19 19 19 19 19 19 19 18 19 18 17 18 19 20 20 20 20 20 20 20 19 19 18 18 18 17 17 16 16 16 15 15 15 14 14 14 14 14 13 13
15 15 15 15 17 18 19 19 19 19 19 18 18 18 18 18 18 18 20 21 22 21 21 20 20 19 19 18 17 17 17 16 16 16 15 15 14 14 14 14 13 13 13 13
13 14 14 14 18 18 19 20 20 20 20 19 18 17 17 17 16 18 21 21 21 20 20 20 19 19 18 18 17 17 17 16 16 16 15 15 14 14 14 13 13 13 13 12
15 14 14 14 16 16 18 19 19 19 19 21 20 19 17 18 20 22 22 22 21 20 20 19 19 19 18 18 17 17 16 16 16 15 15 14 14 14 13 13 13 12 12 12
15 14 13 13 15 17 18 18 18 19 21 21 21 21 20 21 21 22 22 22 21 20 19 19 19 18 18 18 17 17 16 16 16 15 15 14 14 13 13 13 12 12 12 12
13 14 13 15 16 18 18 19 21 21 21 22 22 22 22 21 21 21 21 21 20 20 19 19 19 18 18 17 17 17 16 16 15 15 14 14 13 13 13 12 12 12 11 11
13 12 13 13 14 16 19 20 21 21 22 22 22 22 22 21 21 21 21 20 20 19 19 19 18 18 17 17 17 16 16 15 15 14 14 13 13 13 12 12 12 11 11 11
14 12 13 14 14 16 19 21 21 22 22 22 22 22 22 21 21 21 20 20 20 19 19 18 18 18 17 17 16 16 15 15 14 14 14 13 13 12 12 12 11 11 11 11
12 13 14 15 16 16 19 21 21 21 21 22 22 21 21 21 21 20 20 20 19 19 18 18 17 17 17 16 16 15 15 14 14 14 13 13 12 12 12 11 11 11 11 10
Wind_Speed
3 4 2 4 4 4 4 4 2 1 1 2 2 1 1 1 3 4 5 5 6 5 3 2 4 6 6 6 6 7 7 5 5 3 3 3 1 1 2 2 3 4 4 5
5 0 3 4 3 4 4 3 1 1 1 2 2 1 2 1 2 4 5 6 6 4 2 3 4 5 6 6 7 7 7 6 5 3 3 2 2 1 0 2 3 4 4 4
4 3 4 4 3 3 2 4 4 2 2 4 3 3 2 1 1 1 1 3 5 7 6 5 4 5 6 6 7 7 7 6 5 5 4 3 3 3 2 2 2 3 4 3
2 3 3 4 3 4 2 2 3 3 4 1 2 1 4 1 1 2 2 2 4 5 5 5 5 6 6 5 5 6 6 6 5 5 5 4 3 1 1 1 2 3 4 3
3 3 4 4 4 5 3 3 5 4 4 3 2 3 5 1 3 5 5 3 3 4 6 5 5 6 5 5 5 6 6 5 4 5 5 5 3 1 0 1 2 3 3 4
2 2 3 4 3 5 6 6 7 5 4 1 2 3 5 5 8 6 5 5 4 4 5 4 3 5 5 5 5 6 6 5 4 5 4 4 4 2 1 1 1 2 3 3
0 1 1 3 5 4 5 6 3 2 1 4 2 3 7 6 7 8 9 7 5 5 5 5 5 5 6 6 6 6 7 5 4 5 4 3 4 3 2 1 0 1 2 2
3 2 4 5 5 6 6 6 6 5 5 3 1 5 6 3 3 5 6 7 6 6 5 6 6 6 6 7 7 7 7 6 5 5 4 3 3 2 1 1 1 1 1 2
6 3 1 3 3 8 7 4 4 5 2 1 4 5 6 2 4 6 7 7 7 6 6 6 5 5 6 6 6 7 8 6 5 5 4 3 2 2 1 1 1 0 1 1
6 4 2 4 4 3 6 7 5 5 5 2 3 4 5 6 8 8 9 9 8 7 6 6 5 5 5 5 5 6 6 6 5 4 4 3 2 1 1 2 2 1 2 2
5 4 1 3 6 8 5 4 4 4 4 5 3 7 7 11 12 13 12 11 10 9 8 6 5 5 6 6 6 6 6 5 5 4 3 3 2 2 2 2 1 1 2 2
5 5 3 5 3 6 6 7 7 5 4 4 4 7 4 8 10 12 12 10 9 9 7 6 6 6 6 6 6 6 5 5 4 4 4 3 3 3 3 2 2 2 2 2
7 5 3 2 2 2 4 6 5 5 5 5 4 6 4 3 7 9 11 11 9 9 8 7 7 6 6 6 6 6 5 5 4 5 5 4 3 3 3 2 3 3 3 3
6 4 6 8 7 6 5 6 7 6 5 5 7 7 4 5 8 9 10 11 10 10 9 9 7 7 6 6 6 6 5 5 5 5 5 5 3 3 2 2 3 3 3 3
5 4 5 6 5 5 6 8 10 9 9 9 8 8 10 11 13 12 12 11 11 10 10 10 9 8 7 6 6 6 5 5 6 6 5 4 3 3 4 4 3 4 4 4
4 4 2 2 3 5 5 8 11 9 7 7 5 8 7 5 7 9 12 14 14 13 13 12 11 10 9 9 8 7 6 6 6 6 5 4 4 4 4 3 3 4 4 4
5 6 4 3 3 1 6 9 11 8 8 9 10 11 5 7 13 17 17 17 17 15 14 14 13 12 11 10 9 9 7 6 7 6 5 4 4 4 3 3 4 4 3 3
8 6 4 2 1 5 8 5 7 9 8 10 8 7 11 12 13 11 12 17 16 15 15 14 12 11 9 8 8 7 7 7 7 6 5 4 4 4 3 3 3 2 2 2
5 8 5 4 3 7 8 5 6 7 8 8 10 8 6 5 5 2 9 13 15 15 13 12 12 10 10 10 9 9 8 7 7 6 6 5 5 5 4 3 2 1 2 2
5 5 6 5 4 6 8 4 3 5 6 7 10 9 9 10 6 8 10 12 12 11 10 11 10 9 10 10 10 10 9 8 8 8 7 6 6 6 5 4 3 2 2 1
4 4 5 5 5 8 9 4 5 5 8 4 8 10 13 12 9 5 10 11 11 11 11 12 12 11 11 11 11 10 9 9 8 7 6 5 5 5 5 4 3 3 2 2
8 7 6 6 5 9 5 6 8 9 3 3 6 9 11 8 3 5 11 12 13 12 11 12 12 11 9 11 12 11 10 9 7 6 6 5 5 4 4 4 3 3 3 2
8 8 7 9 9 6 4 7 5 3 4 4 6 7 10 7 6 6 8 11 12 13 13 11 12 11 9 10 11 12 9 7 7 7 6 5 4 4 4 4 4 3 3 2
5 3 4 5 8 7 7 6 6 5 5 4 5 6 9 8 8 8 9 9 10 10 11 11 12 12 10 9 9 9 8 8 8 7 6 5 4 4 3 3 3 4 4 3
5 6 3 5 8 7 6 5 5 3 3 3 3 5 8 10 8 9 9 10 10 10 10 11 12 12 11 10 9 7 8 9 8 7 6 5 5 4 4 3 4 5 5 6
5 7 7 7 7 5 6 4 2 4 4 5 5 4 5 8 9 9 9 9 10 10 10 10 10 10 10 10 9 7 8 10 9 7 6 5 4 4 4 3 3 6 7 8
Wind_Direction
74 83 149 180 170 148 139 129 134 247 246 140 162 173 261 186 157 192 200 203 217 228 241 192 169 158 150 146 145 145 141 138 127 112 109 103 85 39 22 12 15 26 31 33
65 195 203 157 145 118 122 125 119 342 67 126 122 27 305 186 181 200 199 204 208 205 188 173 159 156 158 158 156 154 154 155 153 138 131 131 127 102 26 339 3 17 20 23
155 214 175 151 146 140 155 164 173 169 74 63 86 3 335 324 49 88 175 200 195 197 193 181 162 158 156 159 163 163 160 159 153 134 113 89 64 43 21 1 346 344 358 14
200 230 169 157 181 155 198 194 153 136 110 62 111 192 282 266 245 227 213 189 189 186 175 171 165 162 164 161 149 146 151 152 148 142 138 136 135 145 250 286 313 332 353 4
219 192 166 177 193 155 159 93 88 92 99 64 53 136 275 185 213 224 217 201 188 176 164 164 170 168 150 139 139 137 137 138 138 137 138 129 127 150 271 353 347 346 348 358
231 235 184 173 131 129 118 84 63 52 67 47 221 158 252 218 206 201 196 187 173 155 145 140 132 123 117 119 123 127 129 126 125 124 125 133 138 141 110 32 353 338 338 342
257 264 201 138 108 90 107 103 81 55 49 244 225 194 243 235 207 189 183 179 168 154 146 140 132 131 131 130 133 133 131 126 125 123 123 132 142 146 154 178 271 323 336 333
160 236 203 172 156 159 163 145 155 171 192 250 211 229 254 274 192 156 152 155 152 150 150 147 145 142 139 138 137 135 134 131 130 129 124 114 123 127 145 161 168 257 275 289
175 220 202 160 145 138 142 165 163 130 127 150 260 281 302 110 133 145 146 149 159 159 153 146 138 138 139 140 143 146 140 132 134 133 123 114 115 113 115 98 89 346 306 320
160 175 194 146 101 53 139 142 121 129 148 210 271 264 236 202 189 176 171 174 173 161 153 144 139 139 137 138 134 133 136 137 133 130 132 128 125 114 100 82 62 23 352 2
155 147 150 155 184 173 131 140 134 130 160 160 217 260 223 199 188 184 187 181 173 170 166 157 146 139 132 128 129 131 134 130 129 132 126 116 105 90 83 70 36 18 11 17
160 129 173 225 228 171 162 173 156 160 199 180 184 263 275 205 188 180 178 173 169 166 161 152 144 136 132 134 137 138 140 139 140 135 123 117 101 86 77 57 23 24 26 21
149 130 105 34 13 161 183 178 170 139 124 159 180 262 327 160 165 172 168 164 162 158 153 148 145 146 147 145 144 145 146 147 139 129 123 112 98 91 75 52 34 36 42 37
130 135 168 191 209 184 192 187 168 150 164 194 220 248 282 192 180 175 171 166 162 163 162 159 160 162 158 152 149 147 147 145 136 127 122 118 114 109 94 69 54 48 54 54
132 178 216 232 217 182 200 197 183 191 194 192 224 225 237 210 194 184 171 162 162 168 171 173 172 169 163 155 152 149 148 145 137 129 125 127 120 106 91 75 64 59 60 58
143 176 184 272 222 204 226 220 200 210 205 214 233 249 244 182 154 162 171 172 178 183 183 180 176 172 172 169 164 157 154 153 141 135 136 131 118 106 95 85 75 69 60 52
158 154 146 257 300 80 254 223 198 204 201 184 209 230 176 168 184 189 187 186 189 188 184 182 181 181 179 176 170 166 163 150 141 140 140 137 131 120 112 103 87 76 65 60
150 143 141 158 120 232 244 253 201 205 222 205 214 214 190 196 197 192 186 188 192 187 183 183 180 178 174 168 164 155 147 147 147 147 149 150 142 136 125 109 99 87 79 74
143 139 130 141 202 277 291 256 186 187 248 217 210 218 191 119 99 219 204 195 194 188 182 179 176 170 164 164 160 149 149 150 152 161 166 167 159 152 143 135 133 123 105 80
76 104 123 137 170 236 252 259 179 135 265 237 195 194 156 132 159 230 201 186 182 173 165 161 155 152 160 164 156 153 160 163 176 183 180 173 166 163 165 169 164 156 139 129
112 108 145 165 206 255 252 250 127 157 239 239 188 181 166 180 201 200 164 172 169 163 160 157 156 163 170 163 158 161 167 184 190 178 169 171 175 176 175 166 162 155 144 117
172 165 178 155 189 250 239 152 177 214 239 198 183 179 181 192 160 139 157 161 158 155 153 157 160 165 163 162 163 167 184 191 172 161 165 176 182 186 172 161 162 153 145 130
195 190 185 189 211 237 225 215 240 220 224 214 190 187 175 170 168 157 158 159 162 161 160 160 159 158 161 168 169 176 188 170 157 158 170 178 176 177 170 170 171 164 161 166
247 172 162 239 266 261 261 254 255 225 227 230 197 174 164 166 165 156 155 158 160 160 162 159 155 160 170 176 180 183 172 160 157 165 174 173 172 182 185 185 183 181 191 199
218 163 183 250 274 295 285 250 244 232 218 189 156 165 167 158 159 161 162 166 166 163 162 161 165 169 174 175 181 178 164 157 162 170 176 178 184 188 194 202 208 206 215 204
194 177 181 225 233 213 256 279 230 198 201 179 153 144 159 163 163 160 165 167 164 163 160 163 167 169 171 172 179 178 170 165 164 172 182 186 189 194 195 204 247 246 234 239
Height
1509 1514 1519 1517 1516 1517 1519 1523 1525 1523 1519 1521 1524 1525 1524 1523 1524 1526 1527 1529 1531 1533 1536 1538 1540 1542 1545 1547 1549 1550 1552 1553 1553 1553 1553 1553 1553 1552 1552 1551 1550 1548 1547 1546
1514 1517 1514 1514 1514 1516 1519 1524 1526 1523 1519 1521 1525 1526 1524 1523 1524 1525 1526 1528 1530 1532 1534 1537 1539 1542 1544 1546 1548 1550 1552 1553 1553 1554 1554 1554 1554 1553 1553 1552 1551 1550 1548 1547
1514 1514 1511 1513 1515 1518 1521 1524 1525 1525 1522 1523 1526 1530 1527 1524 1524 1524 1525 1527 1528 1531 1533 1536 1538 1541 1543 1546 1548 1550 1551 1553 1554 1554 1554 1554 1554 1554 1553 1553 1552 1551 1550 1548
1512 1510 1510 1513 1515 1517 1524 1519 1520 1523 1529 1535 1531 1543 1530 1526 1525 1524 1524 1525 1527 1529 1532 1534 1537 1540 1542 1545 1547 1550 1551 1553 1553 1554 1554 1555 1554 1554 1554 1553 1553 1552 1551 1549
1511 1509 1510 1513 1513 1514 1519 1517 1520 1524 1530 1536 1534 1541 1536 1526 1527 1525 1524 1524 1526 1528 1531 1533 1536 1539 1542 1544 1547 1549 1551 1552 1553 1554 1554 1555 1555 1554 1554 1553 1553 1552 1551 1550
1509 1507 1507 1509 1510 1512 1516 1520 1524 1530 1535 1544 1536 1540 1538 1528 1523 1521 1522 1523 1525 1528 1530 1533 1536 1538 1541 1544 1546 1548 1550 1552 1553 1553 1554 1554 1554 1554 1554 1554 1553 1553 1552 1551
1511 1509 1507 1508 1513 1516 1518 1529 1542 1546 1549 1547 1535 1537 1533 1517 1515 1516 1519 1521 1524 1527 1529 1532 1535 1537 1540 1542 1545 1547 1549 1551 1552 1553 1554 1554 1554 1554 1554 1554 1553 1553 1552 1551
1516 1517 1507 1506 1510 1516 1520 1525 1541 1549 1550 1545 1535 1536 1523 1513 1512 1514 1517 1520 1523 1526 1528 1531 1534 1536 1539 1542 1544 1546 1548 1550 1552 1553 1553 1554 1554 1554 1554 1554 1553 1553 1553 1552
1515 1514 1504 1504 1505 1510 1520 1525 1525 1536 1540 1544 1540 1530 1518 1512 1512 1514 1516 1519 1522 1525 1528 1530 1533 1536 1539 1541 1544 1546 1548 1550 1551 1552 1553 1554 1554 1554 1554 1554 1553 1553 1553 1552
1505 1512 1505 1505 1506 1510 1512 1518 1529 1536 1545 1548 1538 1532 1525 1515 1513 1513 1515 1517 1520 1524 1527 1530 1533 1535 1538 1541 1543 1546 1547 1549 1550 1552 1552 1553 1553 1553 1553 1553 1553 1553 1553 1552
1501 1509 1510 1506 1508 1511 1516 1520 1524 1531 1533 1544 1545 1532 1505 1504 1505 1508 1511 1514 1518 1522 1525 1529 1532 1535 1537 1540 1543 1545 1547 1548 1550 1551 1552 1552 1553 1553 1553 1553 1553 1552 1552 1552
1499 1507 1513 1506 1501 1500 1505 1511 1519 1528 1532 1534 1537 1526 1497 1497 1499 1503 1507 1512 1517 1521 1525 1528 1531 1534 1537 1539 1542 1544 1546 1547 1549 1550 1551 1552 1552 1552 1552 1552 1552 1552 1551 1551
1496 1505 1515 1514 1512 1506 1505 1507 1510 1517 1526 1534 1535 1520 1497 1496 1498 1501 1505 1510 1515 1519 1523 1527 1530 1533 1536 1538 1541 1543 1545 1547 1548 1549 1550 1551 1551 1552 1552 1551 1551 1551 1551 1550
1490 1500 1508 1513 1507 1502 1503 1504 1507 1513 1524 1528 1523 1510 1499 1498 1498 1500 1504 1508 1513 1517 1521 1525 1528 1531 1534 1537 1540 1542 1544 1546 1547 1548 1549 1550 1550 1551 1551 1551 1550 1550 1550 1549
1488 1497 1497 1496 1493 1494 1496 1498 1502 1506 1508 1514 1508 1505 1495 1492 1493 1496 1500 1505 1511 1515 1519 1522 1526 1529 1533 1536 1538 1541 1543 1544 1546 1547 1548 1548 1549 1549 1549 1549 1549 1549 1549 1548
1488 1494 1495 1494 1490 1493 1495 1493 1496 1498 1499 1501 1498 1497 1486 1488 1492 1496 1499 1503 1506 1510 1515 1519 1523 1527 1530 1533 1536 1539 1541 1543 1544 1545 1547 1547 1548 1548 1548 1548 1548 1548 1548 1547
1489 1493 1499 1501 1495 1493 1498 1488 1490 1491 1488 1491 1494 1487 1484 1487 1488 1489 1493 1497 1501 1505 1510 1515 1519 1524 1528 1531 1534 1537 1539 1541 1543 1544 1545 1546 1546 1547 1547 1547 1547 1547 1546 1546
1486 1492 1499 1502 1499 1506 1489 1476 1476 1480 1479 1479 1478 1477 1478 1477 1479 1483 1487 1491 1496 1501 1506 1511 1516 1521 1526 1529 1533 1535 1538 1539 1541 1542 1543 1544 1545 1545 1545 1546 1545 1545 1545 1544
1481 1489 1500 1505 1505 1499 1484 1474 1474 1478 1478 1471 1473 1473 1475 1478 1482 1485 1486 1489 1492 1497 1502 1508 1513 1518 1523 1527 1530 1533 1535 1537 1539 1540 1541 1542 1543 1543 1544 1544 1544 1544 1543 1543
1483 1486 1497 1505 1502 1502 1483 1469 1468 1473 1478 1465 1466 1469 1473 1477 1486 1481 1480 1484 1490 1495 1501 1506 1511 1516 1520 1524 1527 1530 1533 1535 1536 1538 1539 1540 1541 1541 1542 1542 1542 1542 1541 1541
1488 1492 1497 1502 1501 1492 1472 1467 1469 1483 1477 1462 1462 1464 1468 1470 1471 1472 1476 1480 1486 1491 1497 1503 1508 1513 1517 1521 1524 1527 1530 1532 1534 1535 1537 1538 1538 1539 1540 1540 1540 1540 1539 1539
1484 1491 1496 1500 1501 1492 1464 1466 1470 1467 1460 1459 1459 1461 1463 1465 1468 1471 1474 1477 1482 1488 1494 1499 1505 1509 1514 1518 1521 1524 1526 1529 1531 1532 1534 1535 1536 1536 1537 1537 1537 1537 1537 1536
1477 1476 1479 1480 1476 1464 1461 1461 1459 1459 1458 1458 1458 1459 1462 1464 1467 1470 1473 1476 1480 1486 1491 1496 1501 1506 1511 1514 1518 1520 1523 1526 1528 1529 1530 1532 1532 1533 1534 1534 1534 1534 1534 1533
1471 1469 1472 1473 1465 1459 1458 1457 1457 1457 1457 1457 1458 1459 1461 1463 1466 1469 1472 1476 1479 1484 1489 1493 1498 1502 1506 1510 1514 1517 1520 1522 1524 1526 1527 1528 1529 1530 1530 1531 1531 1531 1530 1530
1464 1467 1469 1468 1461 1456 1454 1454 1454 1455 1455 1456 1457 1459 1460 1462 1465 1468 1471 1474 1478 1482 1486 1491 1495 1499 1503 1507 1510 1513 1516 1518 1520 1522 1523 1524 1525 1526 1526 1527 1527 1527 1527 1526
1460 1462 1465 1462 1455 1455 1453 1452 1453 1453 1454 1455 1457 1458 1460 1462 1464 1467 1470 1473 1476 1480 1484 1488 1492 1496 1499 1503 1506 1509 1511 1514 1516 1517 1519 1520 1521 1522 1522 1522 1523 1522 1523 1522